• MPC Preparation (Info)

  • MPEC 2000-X34 : 2000 WE147

    The following Minor Planet Electronic Circular may be linked-to from your own Web pages, but must not otherwise be redistributed electronically.

    A form allowing access to any MPEC is at the bottom of this page.


    Read MPEC 2000-X33 Read MPEC 2000-X35


    M.P.E.C. 2000-X34                                Issued 2000 Dec.  9, 19:42 UT
    
         The Minor Planet Electronic Circulars contain information on unusual
             minor planets and routine data on comets.  They are published
       on behalf of Commission 20 of the International Astronomical Union by the
              Minor Planet Center, Smithsonian Astrophysical Observatory,
                              Cambridge, MA 02138, U.S.A.
    
                 Prepared using the Tamkin Foundation Computer Network
    
                                  MPC@CFA.HARVARD.EDU
              URL http://cfa-www.harvard.edu/iau/mpc.html  ISSN 1523-6714
    
                                      2000 WE147
    
    Observations:
         K00WE7E  C2000 11 06.39778 08 09 52.62 +39 29 23.0          18.1        704
         K00WE7E  C2000 11 06.41194 08 09 52.88 +39 29 19.6          19.1        704
         K00WE7E  C2000 11 06.42580 08 09 52.98 +39 29 15.9          19.1        704
         K00WE7E  C2000 11 06.43966 08 09 53.05 +39 29 10.8          17.9        704
         K00WE7E  C2000 11 24.32719 08 08 01.87 +38 16 39.9          15.6 R      699
         K00WE7E  C2000 11 24.33467 08 08 01.75 +38 16 38.4                      699
         K00WE7E  C2000 11 24.35333 08 08 01.41 +38 16 35.2                      699
         K00WE7E  C2000 11 24.37203 08 08 00.99 +38 16 28.2                      699
         K00WE7E* C2000 11 30.33318 08 04 54.59 +37 48 36.5          16.1        678
         K00WE7E  C2000 11 30.37984 08 04 52.72 +37 48 23.8          15.9        678
         K00WE7E  C2000 11 30.39321 08 04 52.20 +37 48 19.4          15.8        678
         K00WE7E  C2000 12 03.41454 08 02 47.06 +37 32 56.3          15.3        678
         K00WE7E  C2000 12 03.42173 08 02 46.71 +37 32 53.9          16.1        678
         K00WE7E  C2000 12 04.36061 08 02 03.95 +37 27 53.2          15.9        704
         K00WE7E  C2000 12 04.37539 08 02 03.24 +37 27 48.5          16.1        704
         K00WE7E  C2000 12 04.39007 08 02 02.50 +37 27 43.3          16.1        704
         K00WE7E  C2000 12 04.40547 08 02 01.79 +37 27 38.7          15.9        704
         K00WE7E  C2000 12 04.42096 08 02 01.01 +37 27 33.7          16.1        704
         K00WE7E  C2000 12 06.28072 08 00 30.01 +37 17 19.2          16.1        678
         K00WE7E  C2000 12 06.28781 08 00 29.72 +37 17 16.4          15.9        678
         K00WE7E  C2000 12 06.30341 08 00 28.87 +37 17 11.6                      678
         K00WE7E  C2000 12 06.37346 08 00 25.31 +37 16 48.0          15.7        704
         K00WE7E  C2000 12 06.38864 08 00 24.47 +37 16 43.0          15.6        704
         K00WE7E  C2000 12 06.40424 08 00 23.66 +37 16 37.9          15.7        704
         K00WE7E  C2000 12 06.41943 08 00 22.87 +37 16 33.1          16.0        704
         K00WE7E  C2000 12 06.43461 08 00 22.04 +37 16 27.8          15.6        704
         K00WE7E  C2000 12 07.15671 07 59 44.34 +37 12 19.2          15.3 R      046
         K00WE7E  C2000 12 07.15815 07 59 44.26 +37 12 18.7                      046
         K00WE7E  C2000 12 07.15914 07 59 44.21 +37 12 18.3                      046
         K00WE7E  C2000 12 07.16019 07 59 44.15 +37 12 18.0                      046
         K00WE7E  C2000 12 07.16122 07 59 44.09 +37 12 17.6                      046
         K00WE7E  C2000 12 07.16231 07 59 44.04 +37 12 17.2                      046
         K00WE7E  C2000 12 08.29434 07 58 43.10 +37 05 42.5          15.5        704
         K00WE7E  C2000 12 08.30959 07 58 42.22 +37 05 37.1          15.6        704
         K00WE7E  C2000 12 08.32486 07 58 41.32 +37 05 31.7          15.9        704
         K00WE7E  C2000 12 08.33714 07 58 40.64 +37 05 27.8          15.9        678
         K00WE7E  C2000 12 08.33933 07 58 40.48 +37 05 27.1          15.8        678
         K00WE7E  C2000 12 08.34015 07 58 40.47 +37 05 25.9          17.7        704
         K00WE7E  C2000 12 08.34153 07 58 40.38 +37 05 26.4          16.0        678
         K00WE7E  C2000 12 08.35284 07 58 39.75 +37 05 22.4          16.0        678
         K00WE7E  C2000 12 08.35538 07 58 39.59 +37 05 21.1          16.3        704
         K00WE7E  C2000 12 08.65582 07 58 22.79 +37 03 37.4          15.9 R      428
         K00WE7E  C2000 12 08.66060 07 58 22.56 +37 03 35.9          15.7 R      428
         K00WE7E  C2000 12 08.66509 07 58 22.27 +37 03 33.7          15.7 R      428
         K00WE7E  C2000 12 08.67015 07 58 21.96 +37 03 31.9          15.9 R      428
         K00WE7E  C2000 12 08.76677 07 58 16.44 +37 02 53.4                      349
         K00WE7E  C2000 12 08.76786 07 58 16.36 +37 02 53.2                      349
         K00WE7E  C2000 12 08.76891 07 58 16.35 +37 02 53.0                      349
         K00WE7E  C2000 12 08.77000 07 58 16.25 +37 02 52.8          15.7 V      349
         K00WE7E  C2000 12 08.95207 07 58 06.19 +37 01 45.2          16.0 V      951
         K00WE7E  C2000 12 08.97292 07 58 04.99 +37 01 38.1          16.1 V      951
         K00WE7E  C2000 12 08.98603 07 58 04.29 +37 01 33.4          15.7 R      946
         K00WE7E  C2000 12 08.98957 07 58 04.04 +37 01 32.1          15.8 V      951
         K00WE7E  C2000 12 09.00392 07 58 03.25 +37 01 27.6                      946
         K00WE7E  C2000 12 09.01057 07 58 02.86 +37 01 25.4          15.8 R      946
         K00WE7E  C2000 12 09.02780 07 58 01.87 +37 01 18.6          15.8 R      946
         K00WE7E  C2000 12 09.34862 07 57 43.45 +36 59 23.2          15.8        678
         K00WE7E  C2000 12 09.36702 07 57 42.33 +36 59 16.7          15.8        678
         K00WE7E  C2000 12 09.38648 07 57 41.23 +36 59 09.7          15.7        678
    
    Observer details:
    046 Klet.  Observers M. Tichy.  0.57-m f/5.2 reflector + CCD.
    349 Ageo.  Observer K. Kadota.  0.18-m f/5.5 reflector + CCD.
    428 Reedy Creek.  Observer J. Broughton.  0.25-m f/6.3 Schmidt-Cassegrain
        + CCD.
    678 Fountain Hills.  Observer C. W. Juels.  0.313-m f/5.44 reflector + CCD.
    699 Lowell Observatory-LONEOS.  Observer B. A. Skiff.  Measurer B. W. Koehn.
        0.59-m LONEOS Schmidt + CCD.
    704 Lincoln Laboratory ETS, New Mexico.  Observers M. Blythe, F. Shelly,
        M. Bezpalko, R. Huber, L. Manguso, S. Adams.  Measurers J. Stuart,
        R. Sayer, J. B. Evans, H. Viggh.  1.0-m f/2.15 reflector + CCD.
    946 Ametlla de Mar.  Observer J. Nomen.  0.30-m f/5.0 reflector + CCD.
    951 Highworth.  Observer J. Rock.  0.25-m f/6.3 reflector + CCD.
    
    Orbital elements:
    2000 WE147 = 1975 BE = 1994 NA1
    Epoch 2000 Sept. 13.0 TT = JDT 2451800.5                Spahr
    M 323.06412              (2000.0)            P               Q
    n   0.11350130     Peri.  234.63456     -0.75392922     -0.04895763
    a   4.2247610      Node   293.35597     +0.51120062     -0.67006875
    e   0.4650923      Incl.   45.52872     -0.41263139     -0.74068280
    P   8.68           H   10.9           G   0.15           U   2
    Residuals in seconds of arc
    750117 095  1.8+  1.3+    001204 704  0.3+  0.1-    001208 678  0.3-  0.5+
    940705 675  1.6-  0.3+    001206 678  2.0-  0.6+    001208 704  0.1-  0.1+
    940705 675  0.9-  0.9-    001206 678  1.0-  0.1+    001208 428  0.1-  0.3-
    940708 675  0.9+  1.3+    001206 678  1.5-  0.4+    001208 428  0.4+  0.1-
    940708 675  0.5+  0.1+    001206 704  0.3+  0.1-    001208 428  0.1+  0.7-
    001106 704  0.0   1.4+    001206 704  0.1-  0.0     001208 428  0.1-  0.7-
    001106 704  1.4+  1.2+    001206 704  0.1+  0.1+    001208 349  0.2+  0.7-
    001106 704  1.0+  0.6+    001206 704  0.3+  0.5+    001208 349  0.0   0.5-
    001106 704  0.3+  1.4-    001206 704  0.1+  0.3+    001208 349  0.6+  0.3-
    001124 699 (2.6-  0.6+)   001207 046  0.1+  0.2-    001208 349  0.2+  0.1-
    001124 699  1.7-  1.0+    001207 046  0.1+  0.2-    001208 951  0.3-  0.3-
    001124 699 (0.1-  2.6+)   001207 046  0.1+  0.2-    001208 951  0.3-  0.1-
    001124 699  0.7+  0.5+    001207 046  0.1+  0.1-    001208 946  0.1+  0.9-
    001130 678  1.2+  0.3-    001207 046  0.0   0.2-    001208 951  0.1-  0.2-
    001130 678  0.8+  0.5+    001207 046  0.2+  0.2-    001209 946  0.1+  0.4-
    001130 678  1.0+  0.0     001208 704  0.2+  0.2+    001209 946  0.0   0.2-
    001203 678  0.8-  0.9+    001208 704  0.1+  0.1+    001209 946  0.2+  0.9-
    001203 678  1.0-  0.8+    001208 704  0.3-  0.0     001209 678  0.4-  0.6-
    001204 704  0.4+  0.1+    001208 678  0.3-  0.5+    001209 678  0.8-  0.5-
    001204 704  0.5+  0.1+    001208 678  0.7-  0.5+    001209 678  0.1-  0.5-
    001204 704  0.1+  0.4-    001208 704  0.0   0.5-
    001204 704  0.6+  0.1-    001208 678  0.4-  0.6+
    
    Ephemeris:
    2000 WE147               a,e,i = 4.22, 0.47, 46                  q = 2.2599
    Date    TT    R. A. (2000) Decl.     Delta      r     Elong.  Phase     V
    2000 12 02    08 03.80   +37 40.3    2.139    2.897   132.5    14.5    15.7
    2000 12 12    07 55.06   +36 42.7    2.003    2.856   143.6    11.8    15.4
    2000 12 22    07 42.92   +35 28.2    1.892    2.815   155.0     8.5    15.1
    2001 01 01    07 28.20   +33 51.1    1.811    2.774   165.8     5.0    14.8
    2001 01 11    07 12.31   +31 49.3    1.763    2.735   169.3     3.8    14.7
    2001 01 21    06 56.94   +29 26.1    1.749    2.696   160.3     7.1    14.8
    2001 01 31    06 43.63   +26 49.6    1.769    2.658   148.4    11.2    15.0
    2001 02 10    06 33.48   +24 10.4    1.818    2.621   136.3    15.1    15.1
    2001 02 20    06 26.93   +21 36.9    1.890    2.586   124.8    18.3    15.3
    2001 03 02    06 23.99   +19 14.5    1.980    2.551   114.1    20.8    15.4
    2001 03 12    06 24.38   +17 04.7    2.081    2.518   104.3    22.5    15.6
    2001 03 22    06 27.65   +15 06.5    2.189    2.487    95.3    23.5    15.7
    2001 04 01    06 33.41   +13 17.7    2.297    2.457    87.0    24.0    15.8
    2001 04 11    06 41.25   +11 35.2    2.404    2.428    79.4    23.9    15.9
    2001 04 21    06 50.82   +09 56.3    2.507    2.402    72.4    23.5    15.9
    2001 05 01    07 01.85   +08 18.3    2.603    2.377    65.9    22.8    15.9
    2001 05 11    07 14.09   +06 38.7    2.691    2.355    60.0    21.8    16.0
    
    Timothy B. Spahr             (C) Copyright 2000 MPC           M.P.E.C. 2000-X34
    

    Read MPEC 2000-X33 Read MPEC 2000-X35


    MPEC number:

    Enter an MPEC number in one of the following forms:

    • 1997-B01 (the full form)
    • J97B01 (the packed version of the full form)
    • B01 (the abbreviated form)